Location: Unspecified
(0.0000°N, 0.0000°E)
Time: 20:41:26
(UTC+00:00)

STARLINK-1932 - Visible Passes

Search period start: 12 January 2025 00:00
Search period end: 22 January 2025 00:00
Orbit: 393 x 395 km, 53.1° (Epoch: 12 January)

Date Brightness Start Highest point End Pass type
(mag) Time Alt. Az. Time Alt. Az. Time Alt. Az.
12 Jan 4.0 19:15:30 10° S 19:18:19 28° SE 19:18:26 28° ESE visible
13 Jan 5.3 19:55:52 10° WSW 19:57:52 21° WNW 19:57:52 21° WNW visible
14 Jan 2.9 18:59:02 10° SW 19:02:12 84° NW 19:04:27 18° NNE visible
16 Jan 5.7 05:35:17 10° NNE 05:37:00 14° NE 05:38:44 10° E visible
16 Jan 4.9 18:41:26 10° WSW 18:44:10 26° NW 18:46:53 10° N visible
18 Jan 4.3 05:14:42 10° NNW 05:17:36 34° NE 05:20:31 10° ESE visible
19 Jan 6.0 04:19:17 10° NE 04:19:20 10° NE 04:19:49 10° ENE visible
20 Jan 2.7 04:55:47 59° NW 04:56:17 81° WSW 04:59:24 10° SSE visible
21 Jan 6.5 03:59:31 11° ESE 03:59:31 11° ESE 03:59:38 10° ESE visible
